Hourly Weather Roundup
Issued by NWS Central Illinois

Home | Current Version | Previous Version | Text Only | Print | Product List | Glossary On
Versions: 1 2 3 4 5 6 7 8 9 10 11 12 13 14 15 16 17 18 19 20 21 22 23 24 25 26 27 28 29 30 31 32 33 34 35 36 37 38 39 40 41 42 43 44 45 46 47 48 49 50
000
NZUS43 KILX 161110
HWRILX

AREA WEATHER ROUNDUP
NATIONAL WEATHER SERVICE, LINCOLN IL
600 AM CDT WED APR 16 2014


CITY           SKY/WX    TMP DP  RH WIND       PRES   REMARKS
BLOOMINGTON    CLEAR     28  22  78 S13       30.24R WCI  17
CHAMPAIGN      CLEAR     30  25  81 SE10      30.27R WCI  21
DANVILLE       CLEAR     28  22  78 SE7       30.27S WCI  21
DECATUR        CLEAR     31  24  75 SE8       30.26R WCI  23
FLORA          PTCLDY    29  27  90 SE3       30.31R
GALESBURG      CLEAR     33  26  73 SE8       30.15S WCI  27
JACKSONVILLE   CLEAR     36  24  64 SE14G20   30.19S WCI  27
LACON          CLEAR     32  24  73 S8        30.21S WCI  24
LAWRENCEVILLE  PTCLDY    32  24  72 SE8       30.33R WCI  25
LITCHFIELD     CLEAR     33  25  72 CALM      30.23S
$$


CITY           SKY/WX    TMP DP  RH WIND       PRES   REMARKS
LINCOLN        CLEAR     32  27  80 SE8       30.25R WCI  25
MACOMB         CLEAR     34  26  72 S13       30.17R WCI  25
MATTOON        CLEAR     32  24  72 SE9       30.28R WCI  24
MT CARMEL AP   PTCLDY    34  30  86 SE7       30.32R WCI  28
OLNEY-NOBLE AP PTCLDY    32  27  80 CALM      30.32R
PARIS          PTCLDY    31  25  78 SE7       30.32R WCI  24
PEORIA         CLEAR     34  23  64 S12       30.21R WCI  25
PONTIAC        CLEAR     32  27  80 SE10      30.25R WCI  24
RANTOUL        CLEAR     31  26  80 CALM      30.29R
ROBINSON       CLEAR     33  27  77 SE8       30.34R WCI  26
SPRINGFIELD    CLEAR     36  24  62 S16       30.22S WCI  26
TAYLORVILLE    CLEAR     32  25  74 SE10G16   30.25R WCI  24
$$

...REGIONAL REPORTS...


CITY           SKY/WX    TMP DP  RH WIND       PRES   REMARKS
CHICAGO O`HARE PTCLDY    29  19  66 S8        30.26R WCI  21
KANKAKEE       CLEAR     30  23  74 SE7       30.29R WCI  23
MOLINE         CLEAR     32  22  66 SE9       30.14S WCI  24
MOUNT VERNON   PTCLDY    34  18  51 SE3       30.29S
PITTSFIELD     CLEAR     35  26  68 SE9       30.16S WCI  28
QUINCY         CLEAR     37  22  54 S14       30.12S WCI  28
ROCKFORD       PTCLDY    30  23  75 SE12      30.23R WCI  20
$$


CITY           SKY/WX    TMP DP  RH WIND       PRES   REMARKS
BURLINGTON     CLEAR     36  24  62 S14       30.10S WCI  27
CEDAR RAPIDS   CLOUDY    36  22  56 SE15      30.05R WCI  27
DES MOINES     CLOUDY    43  26  51 S14       29.91F
KIRKSVILLE     CLEAR     36  24  62 S14       30.05S WCI  27
OTTUMWA        PTCLDY    37  24  59 S15       30.00S WCI  28
ST LOUIS       PTCLDY    39  22  50 SE10G20   30.22S WCI  32
$$


CITY           SKY/WX    TMP DP  RH WIND       PRES   REMARKS
TERRE HAUTE    MOCLDY    30  21  69 SE8       30.32R WCI  22
EVANSVILLE     PTCLDY    34  23  64 VRB3      30.32S
INDIANAPOLIS   PTCLDY    27  18  69 SE9       30.33R WCI  18
LAFAYETTE      CLEAR     28  20  71 SE7       30.32R WCI  21
MADISON        MOCLDY    28  21  75 SE5       30.21R WCI  23
MILWAUKEE      MOCLDY    31  21  66 S6        30.26R WCI  25
$$





USA.gov is the U.S. government's official web portal to all federal, state and local government web resources and services.